www.pogodaiklimat.ru
ПОГОДА в Удонтхани
Время
(UTC), дата
00 21.09
03 21.09
06 21.09
09 21.09
12 21.09
15 21.09
18 21.09
21 21.09
00 22.09
03 22.09
06 22.09
09 22.09
12 22.09
15 22.09
18 22.09
21 22.09
00 23.09
03 23.09
06 23.09
09 23.09
12 23.09
15 23.09
18 23.09
21 23.09
00 24.09
03 24.09
06 24.09
09 24.09
12 24.09
15 24.09
18 24.09
21 24.09
00 25.09
03 25.09
06 25.09
09 25.09
12 25.09
15 25.09
18 25.09
21 25.09
00 26.09
03 26.09
06 26.09
09 26.09
12 26.09
15 26.09
18 26.09
21 26.09
00 27.09
03 27.09
06 27.09
09 27.09
12 27.09
15 27.09
18 27.09
21 27.09
Ветер
(напр.,м/с)
Видим. Явления Облачность Т
(С)
Тd
(С)
f
(%)
Тe
(С)
Тes
(С)
Комфортность P
(гПа)
Po
(гПа)
Тmin
(С)
Tmax
(С)
R
(мм)
R24
(мм)
S
(см)
штиль 0 12 км 10/5 300 м
[Cu Sc Ac As Cs]
+25.3 +24.4 95 +35 +36 очень
душно
1010.1 989.8 +24.4 3.1
З 4 15 км 9/1 600 м
[Cu hum Ac cuf Cs]
+28.3 +25.0 82 +41 +45 опасность
перегрева
1010.5 990.4
СВ 3 15 км 8/4 600 м
[Cu med, cong Ac cuf Cs]
+31.5 +24.8 68 +45 +51 опасность
перегрева
1008.2 988.3 1.0
В 3 15 км 8/4 600 м
[Cu Sc Ac cuf Cs]
+31.4 +24.6 67 +44 +46 опасность
перегрева
1006.6 986.7
СЗ 3 12 км 8/6 600 м
[Cu Sc Ac cuf Cs]
+28.2 +25.2 84 +41 +41 опасность
перегрева
1007.4 987.3 +32.0 0.6
З 2 12 км {дождь} 9/4 600 м
[Cu Sc Ac As Cs]
+27.0 +25.6 92 +40 +40 очень
душно
1009.8 989.6 0.2
З 2 12 км {дождь} 10/4 600 м
[Cu Sc Ac As Cs]
+26.3 +24.9 92 +38 +38 очень
душно
1009.3 989.1 0.4 0.6
З 5 12 км 10/3 300 м
[Cu Sc Ac As Cs]
+25.7 +24.7 94 +36 +36 очень
душно
1009.1 988.8
СЗ 4 13 км в посл. час дождь 10/4 200 м
[Sc Ac As Cs]
+24.4 +23.5 95 +33 +33 очень
душно
1010.9 990.5 +24.0 1 2.0
СЗ 4 12 км слаб. дождь 10/6 300 м
[Cu Sc Ac As Cs]
+26.3 +24.4 89 +37 +39 очень
душно
1011.3 991.0 1
З 5 15 км {дождь} 9/1 1000 м
[Cu hum Ac lent Cs]
+30.3 +24.0 69 +42 +47 опасность
перегрева
1008.7 988.7 0.0 3.1
СЗ 3 15 км 8/3 1000 м
[Cu hum Cs]
+33.0 +25.7 66 +48 +51 опасность
перегрева
1005.7 986.0
штиль 0 14 км 3/1 1000 м
[Cu hum Cs]
+29.7 +25.6 79 +44 +44 опасность
перегрева
1006.9 987.0 +33.0 3.1
штиль 0 12 км 4/1 600 м
[Cu med, cong Ac trans Cs]
+28.1 +25.7 87 +42 +42 опасность
перегрева
1008.8 988.7
штиль 0 12 км 8/3 1000 м
[Sc Ac cuf Cs]
+27.2 +25.5 90 +40 +40 очень
душно
1008.5 988.3 2.5
штиль 0 10 км 8/4 600 м
[Sc Ac cuf Cs]
+26.8 +25.4 92 +39 +39 очень
душно
1008.1 988.0
В 2 6000 м дымка {дождь} 10/4 300 м
[Cu Sc Ac As]
+26.7 +26.0 96 +40 +40 очень
душно
1009.2 989.0 +26.6 0.1 1.2
СЗ 2 6000 м слаб. дождь 10/6 300 м
[Cu Sc Ac As]
+29.0 +25.8 83 +43 +45 опасность
перегрева
1009.7 989.6 0.5
СЗ 2 14 км слаб. дождь {гроза} 10/4 600 м
[Cb cap Ac cuf Ci ing]
+25.8 +24.9 95 +37 +42 очень
душно
1008.3 988.0 52 52.9
ЮЗ 2 15 км {дождь} 9/3 1000 м
[Cu med, cong Ac As Cs]
+30.0 +25.5 77 +44 +46 опасность
перегрева
1007.1 987.2 0.0
В 1 15 км {дождь} 3/0
[Ac lent Cs]
+27.4 +25.7 90 +40 +40 очень
душно
1007.4 987.2 +30.0 53 52.9
Ю 2 15 км 4/0
[Ac lent Cs]
+26.3 +25.1 93 +38 +38 очень
душно
1009.5 989.3
В 2 14 км 9/0
[Ac lent Cs]
+26.0 +25.3 96 +38 +38 очень
душно
1009.7 989.4 52.9
В 2 14 км 3/0
[Ac cuf Ci sp]
+25.7 +25.0 96 +37 +37 очень
душно
1008.4 988.2
С 1 8000 м дымка 9/8 50 м
[St Ci sp]
+25.7 +25.4 98 +37 +37 очень
душно
1010.0 989.7 +25.1 52.8
ЮВ 3 15 км 5/3 600 м
[Cu med, cong Ci fib]
+29.8 +25.4 77 +44 +51 опасность
перегрева
1011.5 991.4
З 4 15 км 6/4 600 м
[Cu med, cong Ci fib]
+32.5 +24.9 64 +46 +53 опасность
перегрева
1008.7 988.9 0.0
СВ 2 15 км 4/1 1000 м
[Cu med, cong Ci fib]
+32.8 +24.9 63 +46 +51 опасность
перегрева
1006.0 986.2
штиль 0 12 км 3/0
[Ac lent Cs]
+30.0 +25.9 79 +45 +45 опасность
перегрева
1007.0 987.0 +33.0
ЮВ 2 12 км 3/0
[Ac lent Cs]
+27.6 +25.0 86 +40 +40 очень
душно
1009.6 989.5
Ю 2 12 км 3/0
[Ac lent Cs]
+27.0 +24.5 86 +38 +38 очень
душно
1008.3 988.2
штиль 0 12 км ясно +25.7 +24.5 93 +36 +36 очень
душно
1007.3 987.0
штиль 0 12 км 3/1 1000 м
[Cu hum Ac trans Ci fib]
+25.8 +24.9 95 +37 +38 очень
душно
1009.7 989.4 +25.2
ЮЗ 3 15 км 6/5 600 м
[Cu hum Ac trans Cc]
+30.9 +25.4 73 +45 +50 опасность
перегрева
1010.3 990.3
Ю 2 15 км 8/5 1000 м
[Cu med, cong Ci fib]
+32.4 +25.4 67 +47 +55 опасность
перегрева
1007.5 987.6
Ю 2 15 км 8/3 1000 м
[Cu hum Ac lent Cs]
+32.4 +25.1 65 +46 +48 опасность
перегрева
1004.9 985.1
штиль 0 14 км 5/1 1000 м
[Cu hum Ac trans Cs]
+29.5 +26.4 83 +45 +45 опасность
перегрева
1006.0 986.0 +33.4
штиль 0 12 км 3/0
[Ac lent Ci sp]
+28.2 +25.8 87 +42 +42 опасность
перегрева
1008.4 988.3
штиль 0 10 км зарница 8/3 600 м
[Cb cap Ac cuf Cs]
+27.4 +25.4 89 +40 +40 очень
душно
1008.0 987.9
штиль 0 10 км слаб. дождь {гроза} 9/4 1000 м
[Sc Ac cuf Cs]
+24.7 +23.7 94 +34 +34 очень
душно
1006.9 986.6 1
СЗ 1 14 км {гроза, дождь} 8/1 300 м
[Cu Sc Ac cuf Cs]
+26.6 +23.8 85 +37 +37 очень
душно
1008.0 987.8 +24.6 1 1.4
З 2 15 км 6/1 600 м
[Cu hum Ac trans Cs]
+30.8 +25.4 73 +45 +54 опасность
перегрева
1009.0 989.1
З 6 15 км 8/6 600 м
[Cb cap Ac cuf Ci ing]
+33.3 +25.1 62 +47 +49 опасность
перегрева
1006.6 986.9 1.4
СЗ 2 15 км 8/4 1000 м
[Cu med, cong Ac cuf Ci sp]
+32.7 +25.1 64 +46 +48 опасность
перегрева
1004.0 984.3
штиль 0 14 км 4/0
[Ac lent Cs]
+30.5 +25.6 75 +45 +45 опасность
перегрева
1005.1 985.2 +34.0 1.4
Ю 2 14 км 4/0
[Ac trans Ci sp]
+28.7 +27.0 91 +45 +45 опасность
перегрева
1007.5 987.4
штиль 0 14 км 5/3 1000 м
[Sc Ac trans Ci sp]
+27.7 +25.7 89 +41 +41 опасность
перегрева
1006.7 986.6 1.4
СЗ 2 8000 м слаб. дождь 10/4 300 м
[Cu Sc Ac As Cs]
+26.9 +25.9 94 +40 +40 очень
душно
1006.1 986.0 2
штиль 0 15 км {дождь} 8/3 600 м
[Cu Sc Ac cuf Cs]
+26.6 +25.5 94 +39 +39 очень
душно
1007.0 986.8 +26.0 0.7 2.8
С 4 15 км 9/6 600 м
[Cb cap Ac lent Ci ing]
+30.9 +25.7 74 +46 +48 опасность
перегрева
1007.8 987.8
СВ 4 15 км 6/1 300 м
[Cu med, cong Ac lent Ci ing]
+30.9 +26.3 77 +47 +55 опасность
перегрева
1006.1 986.3 2.8
В 3 15 км 8/1 600 м
[Cu med, cong Ac lent Cs]
+32.3 +25.6 68 +47 +50 опасность
перегрева
1003.2 983.4
В 1 12 км зарница 3/1 600 м
[Cb cap Cs]
+29.0 +26.6 87 +45 +45 опасность
перегрева
1004.5 984.6 +32.5 2.8
З 1 12 км 3/0
[Ac lent Cs]
+27.9 +26.3 91 +42 +42 опасность
перегрева
1007.2 987.1
СЗ 2 12 км зарница 8/3 600 м
[Cb cap Ac lent Ci ing]
+27.1 +25.8 93 +40 +40 очень
душно
1005.7 985.6 2.8
штиль 0 12 км зарница {дождь} 3/0
[Ac lent Ci ing]
+26.5 +25.8 96 +39 +39 очень
душно
1005.7 985.6 0.2
Местоположение метеостанции Удонтхани (Таиланд): широта 17.38 долгота 102.80 высота над уровнем моря 182 м.
В архиве по умолчанию представлена погода в Удонтхани за последнюю неделю. Архивные данные за месяц целиком и за предыдущие месяцы, начиная с января 2011 года, Вы можете получить, выбрав интересующий диапазон дат из раскрывающегося списка и нажав кнопку "Найти!".
*Определитесь, кто Вы:
Внимание! Время в таблицах - всемирное. Для получения местного времени необходимо прибавить поправку, которая равна 7 ч.
Смотрите также архив погоды в соседних городах и на ближайших метеорологических станциях:
Партнеры нашего сайта:      
Пояснения к столбцам:
  • Ветер - указаны скорость ветра в м/с - средняя за 10 мин, порывы в срок и между сроками (в фигурных скобках) и направление, откуда дует ветер: С - северный,
  • СВ - северо-восточный, В - восточный, ЮВ - юго-восточный, Ю - южный, ЮЗ - юго-западный, З - западный, СЗ - северо-западный.
  • Видимость - горизонтальная дальность видимости в метрах или километрах. При видимости от 1 до 10 км при отсутствии осадков обычно наблюдается дымка, при ухудшении видимости до 1 км и менее - туман. В сухую погоду видимость может ухудшаться дымом, пылью или мглою.
  • Явления - указаны атмосферные явления, наблюдавшиеся в срок или в последний час перед сроком; фигурными скобками обозначены явления, наблюдавшиеся между сроками (за 1-3 часа до срока); квадратными скобками обозначены град или гололедные отложения с указанием их диаметра в мм.
  • Облачность - указаны через наклонную черту общая и нижняя облачность в баллах и высота нижней границы облаков в метрах; квадратными скобками обозначены формы облаков: Ci - перистые, Cs - перисто-слоистые, Cc - перисто-кучевые, Ac - высококучевые, As - высокослоистые, Sc - слоисто-кучевые, Ns - слоисто-дождевые, Cu - кучевые, Cb - кучево-дождевые. Подробнее классификацию облаков см. в Атласе облаков (PDF).
  • T - Температура воздуха - температура, измеренная на высоте 2 м над землей.
  • Td - Температура точки росы - температура, при понижении до которой содержащийся в воздухе водяной пар достигнет насыщения.
  • f - Относительная влажность воздуха - влажноcть воздуха, измеренная на высоте 2 м над землей.
  • Te - Эффективная температура - температура, которую ощущает одетый по сезону человек в тени. Характеристика душности погоды. При расчете учитывается влияние влажности воздуха и скорости ветра на теплоощущения человека.
  • Tes - Эффективная температура на солнце - температура, которую ощущает человек, с поправкой на солнечный нагрев. Характеристика знойности погоды. Зависит от высоты солнца над горизонтом, облачности и скорости ветра. Ночью, в пасмурную погоду, а также при ветре 12 м/с и более поправка равна нулю.
  • P - Атмосферное давление - приведенное к уровню моря атмосферное давление.
  • Po - Атмосферное давление - измеренное на уровне метеостанции атмосферное давление.
  • Tmin - Минимальная температура - минимум температуры воздуха на высоте 2 м над землей.
  • Tmax - Максимальная температура - максимум температуры воздуха на высоте 2 м над землей.
  • R - Количество осадков - Количество выпавших осадков за период времени, мм. При наведении курсора мыши на число - период времени, за который выпало указанное количество осадков.
  • R24 - Количество осадков - Количество выпавших осадков за 24 часа, мм.
  • S - Снежный покров - Высота снежного покрова, см. При наведении курсора мыши на число - состояние снежного покрова и степень покрытия местности в баллах.